Flag for Qatar Weather past 2 weeks in Al Khor, Qatar

Now
95 °F

Clear.


Feels Like: 116 °F
Forecast: 86 / 103 °F
Wind: 7 mph from South

Location: Doha International Airport

Current Time: Aug 28, 2014 at 9:17:19 AM

Latest Report: Aug 28, 2014 at 8:00 AM


Visibility: 4 mi

Pressure: 29.62 "Hg

Humidity: 63%

Dew point: 81 °F

Location of Al KhorLocation

Historic Weather in Al Khor — Graph

°F

Al Khor temperature yesterday

Maximum temperature yesterday: 104 °F (at 10:00 AM)
Minimum temperature yesterday: 91 °F (at 2:00 AM)
Average temperature yesterday: 96 °F

Past Weeks' High & Low Weather Summary

 TemperatureHumidityPressure
High109 °F (Aug 21, 11:00 AM)84% (Aug 14, 3:00 AM)29.77 "Hg (Aug 14, 3:00 AM)
Low90 °F (Aug 14, 3:00 AM)22% (Aug 21, 11:00 AM)29.42 "Hg (Aug 16, 4:00 PM)
Average96 °F62%29.57 "Hg
* Reported Aug 13 8:00 AM — Aug 28 8:00 AM, Al Khor, Weather by CustomWeather, © 2014

Note: Actual official high and low records may vary slightly from our data, if they occured in-between our weather recording intervals... More about our weather records

Advertising

Al Khor weather history for previous 24 hours

 ConditionsComfort  
Time TempWeatherWind HumidityBarometerVisibility
8:00 AM
Aug 28
95 °FClear.7 mph63%29.62 "Hg4 mi
7:00 AM93 °FClear.7 mph71%29.59 "Hg4 mi
6:30 AM91 °FClear.6 mph75%29.59 "Hg4 mi
6:00 AM91 °FClear.6 mph75%29.59 "Hg4 mi
5:30 AM90 °FClear.5 mph75%29.59 "Hg4 mi
5:00 AM90 °FClear.5 mph75%29.56 "Hg5 mi
4:00 AM90 °FClear.5 mph75%29.56 "Hg5 mi
3:30 AM90 °FClear.5 mph75%29.56 "Hg5 mi
3:00 AM91 °FClear.5 mph75%29.53 "Hg5 mi
2:00 AM91 °FClear.5 mph71%29.53 "Hg5 mi
1:30 AM91 °FClear.7 mph71%29.56 "Hg5 mi
1:00 AM91 °FClear.5 mph71%29.56 "Hg5 mi
12:30 AM91 °FClear.3 mph71%29.56 "Hg5 mi
12:00 AM91 °FClear.5 mph71%29.56 "Hg5 mi
11:30 PM
Aug 27
91 °FClear.5 mph71%29.56 "Hg5 mi
11:00 PM91 °FClear.5 mph71%29.56 "Hg5 mi
10:30 PM91 °FClear.5 mph71%29.56 "Hg5 mi
10:00 PM93 °FClear.6 mph67%29.56 "Hg5 mi
8:00 PM93 °FClear.6 mph67%29.56 "Hg5 mi
7:00 PM95 °FClear.6 mph63%29.56 "Hg5 mi
6:00 PM95 °FClear.7 mph63%29.56 "Hg5 mi
5:00 PM97 °FPassing clouds.9 mph56%29.56 "HgN/A
4:30 PM97 °FPassing clouds.10 mph56%29.56 "HgN/A
4:00 PM99 °FPassing clouds.10 mph50%29.56 "HgN/A
3:00 PM99 °FPassing clouds.12 mph50%29.56 "HgN/A
2:00 PM100 °FSunny.12 mph45%29.56 "Hg10 mi
1:30 PM100 °FClear.13 mph45%29.59 "Hg6 mi
1:00 PM100 °FClear.13 mph45%29.59 "Hg5 mi
12:30 PM102 °FClear.12 mph45%29.59 "Hg5 mi
12:00 PM100 °FClear.12 mph53%29.62 "Hg5 mi
11:30 AM100 °FClear.12 mph53%29.62 "Hg6 mi
11:00 AM100 °FClear.9 mph50%29.62 "Hg6 mi
10:30 AM104 °FClear.6 mph45%29.65 "Hg6 mi
10:00 AM104 °FClear.3 mph38%29.65 "Hg6 mi
9:30 AM100 °FSunny.2 mph47%29.65 "Hg10 mi
9:00 AM100 °FPassing clouds.5 mph47%29.65 "HgN/A
Weather by CustomWeather, © 2014

See weather overviewHow to use our weather pages